Oregon State Current Weather Observations

 
 ASUS46 KPQR 202210
 RWROR 
 
 OREGON REGIONAL WEATHER ROUNDUP
 NATIONAL WEATHER SERVICE PORTLAND OR
 300 PM PDT SUN MAY 20 2018
 
 NOTE: "FAIR" INDICATES FEW OR NO CLOUDS BELOW 12,000 FEET WITH
 NO SIGNIFICANT WEATHER AND/OR OBSTRUCTIONS TO VISIBILITY.
 
 ORZ001>013-202300-
 NORTHWEST OREGON
 
   
 CITY           SKY/WX    TMP DP  RH WIND       PRES   REMARKS
 ASTORIA        MOSUNNY   60  50  69 NW15      30.08S                  
 TILLAMOOK      PTSUNNY   59  48  67 W15       30.09F                  
 NEWPORT        SUNNY     59  50  72 NW9       30.12F                  
 PORTLAND       MOSUNNY   68  45  43 NW5       30.03F                  
 VANCOUVER WA   PTSUNNY   67  49  52 SW8       30.02F                  
 SCAPPOOSE      MOSUNNY   68  46  45 VRB6      30.02F                  
 HILLSBORO      MOSUNNY   68  47  46 W10       30.02F                  
 AURORA         PTSUNNY   67  48  50 VRB3      30.04F                  
 MCMINNVILLE    CLOUDY    66  48  52 CALM      30.02F                  
 SALEM          PTSUNNY   68  46  45 N8        30.02F                  
 CORVALLIS      MOSUNNY   68  49  50 VRB3      30.03F                  
 EUGENE         MOSUNNY   65  50  58 VRB5      30.03F                  
 
ORZ021-028-202300- SOUTHWEST OREGON CITY SKY/WX TMP DP RH WIND PRES REMARKS NORTH BEND CLOUDY 60 48 64 N13 30.10F BROOKINGS SUNNY 60 49 66 NW15G21 30.03F ROSEBURG PTSUNNY 64 47 53 CALM 30.02F SEXTON SUMMIT MOSUNNY 54 45 71 VRB3 30.00F GRANTS PASS FAIR 68 45 42 NW9G17 30.00F MEDFORD MOSUNNY 69 48 47 NW8 29.94F
ORZ014>016-041-202300- COLUMBIA GORGE CITY SKY/WX TMP DP RH WIND PRES REMARKS TROUTDALE MOSUNNY 69 46 43 VRB6 30.02F HOOD RIVER SUNNY 70 45 40 W10G20 29.95F THE DALLES MOSUNNY 75 46 35 NW20G29 29.90F
ORZ029>031-041-044-049-050-061>064-502-503-505>511-202300- EASTERN OREGON CITY SKY/WX TMP DP RH WIND PRES REMARKS MADRAS PTSUNNY 70 37 30 N9 29.95F REDMOND PTSUNNY 68 41 37 N8 29.94F BEND PTSUNNY 66 39 37 N9G16 29.96S PRINEVILLE CLOUDY 64 41 42 N12 29.96S KLAMATH FALLS RAIN 55 47 74 SW6 29.95R LAKEVIEW LGT RAIN 56 46 69 N12 29.96R HERMISTON PTSUNNY 78 53 41 VRB6 29.87F PENDLETON PTSUNNY 71 53 52 N6 29.89F JOHN DAY CLOUDY 55 54 97 W7 29.96F MEACHAM LGT RAIN 58 52 80 VRB3 29.95S LA GRANDE LGT RAIN 57 54 88 MISG 29.94S BAKER CITY CLOUDY 62 52 69 NW10 29.93F BURNS PTSUNNY 61 49 64 NW18 29.91S ROME N/A 73 35 25 S10G21 29.86F ONTARIO PTSUNNY 78 51 38 N8 29.83F

Data from: http://www.wrh.noaa.gov/sew/get.php?pil=RWR&sid=OR&version=0&format=printer

Current Observations

Current Weather Conditions by Major Highway
Washington State Current Weather Observations   …  Oregon State Current Weather Observation



48 Hour Forecast


Seattle  …  Vancouver  …  Portland
————————————————————————————————————————
Bend  …  Spokane  …  Richland  …  Pendleton  …  Blue Mountains I-84  …  Yakima
————————————————————————————————————————
Goldendale, Washington Higher Elevations  …  Dallesport Airport - Goldendale  …  Bingen - White Salmon - Hood River  …  Index





Top of Page